Location: LDNL
(36.4545°S, 141.6685°E)
Time: 11:53:54
(UTC+10:00)

Vanguard 3 - Pass Details

Date: 04 February 2022
Orbit: 508 x 3258 km, 33.3° (Epoch: 25 May)

Event Time Altitude Azimuth Distance (km) Brightness Sun altitude
Rises 02:47:17 0° 265° (W) 4,070 - -35.3°
Reaches altitude 10° 02:49:34 10° 268° (W) 3,375 - -35.1°
Maximum altitude 02:58:28 66° 347° (NNW) 2,097 - -34.5°
Exits shadow 02:58:55 66° 358° (N) 2,133 8.8 -34.5°
Drops below altitude 10° 03:14:14 10° 64° (ENE) 5,673 11.4 -33.3°
Sets 03:19:22 0° 66° (ENE) 6,955 11.9 -32.8°
